Tracking 18850 objects as of 22-Nov-2017
HD Live streaming from Space Station
objects crossing your sky now

COSMOS 1943

Track COSMOS 1943 now!
10-day predictions
COSMOS 1943 is classified as:


NORAD ID: 19119
Int'l Code: 1988-039A
Perigee: 840.7 km
Apogee: 857.5 km
Inclination: 71.0 °
Period: 101.8 minutes
Semi major axis: 7220 km
RCS: 13.147 m2 (large)
Launch date: May 15, 1988
Source: Commonwealth of Independent States (former USSR) (CIS)
Launch site: TYURATAM MISSILE AND SPACE COMPLEX (TTMTR)
aabbcc
Your satellite tracking list
Your tracking list is empty




NASA's NSSDC Master Catalog

Two Line Element Set (TLE):
1 19119U 88039A   17326.02771299  .00000255  00000-0  15569-3 0  9996
2 19119  71.0013 130.3118 0011682 188.1249 310.6659 14.15102415524424
Source of the keplerian elements: AFSPC